Location: Recife
(8.0585°S, 34.8848°W)
Time: 20:35:17
(UTC-03:00)

Hubble Space Telescope - Pass Details

Date: 29 September 2021
Orbit: 535 x 539 km, 28.5° (Epoch: 26 October)

Event Time Altitude Azimuth Distance (km) Brightness Sun altitude
Exits shadow 03:46:42 33° 211° (SSW) 914 1.7 -20.2°
Maximum altitude 03:48:14 53° 152° (SSE) 663 1.3 -19.8°
Drops below altitude 10° 03:52:15 10° 75° (ENE) 1,780 4.5 -18.8°
Sets 03:54:33 0° 70° (ENE) 2,668 5.5 -18.2°
